Regional Weather Roundup
Issued by NWS

Home | Current Version | Previous Version | Graphics & Text | Print | Product List | Glossary On
Versions: 1 2 3 4 5 6 7 8 9 10 11 12 13 14 15 16 17 18 19 20 21 22 23 24 25 26 27 28 29 30 31 32 33 34 35 36 37 38 39 40 41 42 43 44 45 46 47 48 49 50
000
ASUS43 KFSD 250910
RWRSD

WEATHER ROUNDUP FOR SOUTH DAKOTA
NATIONAL WEATHER SERVICE SIOUX FALLS SD
400 AM CDT MON MAY 25 2015

NOTE: "FAIR" INDICATES FEW OR NO CLOUDS BELOW 12,000 FEET WITH NO
SIGNIFICANT WEATHER AND/OR OBSTRUCTIONS TO VISIBILITY.


SDZ001>005-009-010-012>017-251000-
NORTHWEST AND NORTH CENTRAL SOUTH DAKOTA

CITY           SKY/WX    TMP DP  RH WIND       PRES   REMARKS
BUFFALO          N/A     52  51  97 NW9       29.79F
FAITH            N/A     54  52  93 NE3       29.83F
MOBRIDGE       CLOUDY    57  57 100 NE7       29.78F
$$

SDZ012>016-024>037-041>051-057-063-072>074-251000-
SOUTHWEST AND SOUTH CENTRAL SOUTH DAKOTA

CITY           SKY/WX    TMP DP  RH WIND       PRES   REMARKS
RAPID CTY ARPT CLOUDY    51  50  96 N9        29.82F
PIERRE         CLOUDY    57  57 100 NE5       29.77S FOG
CUSTER         CLOUDY    45  43  93 CALM      29.86F
ELLSWORTH AFB  CLOUDY    51  51 100 N5        29.83S
PHILIP         CLOUDY    56  55  97 N7        29.79S
PINE RIDGE     CLOUDY    55  52  89 N7        29.79F
SPEARFISH      FOG       46  46 100 W3        29.87S VSB<1/4
WINNER         FOG       59  57  93 NE5       29.76F VSB 1/4
$$

SDZ004>011-016>023-039-040-251000-
NORTHEAST SOUTH DAKOTA

CITY           SKY/WX    TMP DP  RH WIND       PRES   REMARKS
ABERDEEN       LGT RAIN  57  56  96 NE9       29.77F FOG
WATERTOWN      RAIN      56  55  97 N5        29.74F FOG
BROOKINGS      CLOUDY    55  55 100 NW3       29.74S
SISSETON         N/A     57  57 100 N10       29.74F
$$

SDZ017-020-022-023-036>040-048>070-251000-
SOUTHEAST SOUTH DAKOTA

CITY           SKY/WX    TMP DP  RH WIND       PRES   REMARKS
SIOUX FALLS    CLOUDY    59  57  93 W3        29.74R
HURON          CLOUDY    57  57 100 N3        29.75S
CHAMBERLAIN    CLOUDY    57  57  99 CALM      29.76F FOG
MITCHELL       CLOUDY    59  58  96 N6        29.75F FOG
YANKTON        CLOUDY    59  57  94 NW5       29.72F
$$

ABBREVIATIONS USED IN REMARKS
   TC - TEMPERATURE IN CELSIUS
  WCI - WIND CHILL INDEX
   HX - HEAT INDEX
  VSB - VISIBILITY



USA.gov is the U.S. government's official web portal to all federal, state and local government web resources and services.